RH
56 57 56 54 55 55 52 50 50 47 46 43 39 39 39 41 42 41 40 38 37 36 35 33 31 31 29 28 27 26 25 25 25 26 27 28 28 27 26 22 20 21 22 20 18 20 21 23 24 25 25 24 24 25 24 22 22 23 22 21 19 17 16 16 15 15 16 16 16 16 16 19 25 26 19 15 15 15 15 16 16 16 15 15 16
59 60 58 56 58 58 54 54 53 51 47 44 41 39 39 41 42 42 41 40 39 39 37 34 32 31 30 29 28 27 26 25 26 27 28 30 29 28 28 27 23 23 26 24 23 22 21 22 24 24 25 24 23 24 23 22 22 22 22 20 18 17 16 16 16 17 17 17 16 17 16 16 20 22 20 16 15 15 16 15 16 16 15 15 14
62 65 61 57 58 58 56 56 56 52 49 45 40 38 40 42 43 43 43 42 41 41 39 36 34 32 30 29 29 29 28 28 28 28 29 30 29 29 29 28 27 24 25 25 27 28 23 22 24 25 24 24 22 23 22 21 21 21 20 19 18 17 17 17 17 18 18 18 17 16 16 17 17 17 17 16 15 15 16 15 16 16 16 16 15
66 68 65 60 58 59 58 58 56 52 49 44 40 38 41 43 44 45 44 43 43 43 42 39 36 33 31 30 29 29 29 29 29 30 30 31 29 29 28 28 28 27 27 26 29 32 28 24 25 25 24 23 22 23 22 20 20 20 20 18 18 18 18 18 18 20 20 19 18 17 16 16 16 16 15 14 14 15 16 15 16 16 16 16 15
63 64 67 65 62 61 59 58 55 52 48 44 40 39 42 45 46 46 45 44 45 45 44 42 39 35 33 31 30 29 29 30 31 31 32 32 31 30 29 28 28 29 30 29 30 34 34 30 27 26 25 23 22 22 22 21 20 20 19 19 19 19 19 19 20 21 22 22 21 18 16 16 16 16 15 14 14 14 15 15 15 16 16 16 16
61 62 70 70 65 63 61 58 56 53 49 45 41 40 43 47 46 45 46 45 46 45 45 43 40 37 35 33 31 31 31 31 31 32 33 32 32 30 29 29 28 29 32 32 32 35 39 36 31 28 26 25 23 23 22 21 20 20 20 20 20 20 21 21 22 22 23 24 23 21 17 15 16 16 15 15 14 14 15 15 16 15 16 16 16
59 64 73 71 67 66 62 58 58 55 50 45 42 42 44 47 47 47 47 46 46 46 44 42 40 38 35 33 32 32 32 31 31 32 33 32 31 30 30 29 29 29 31 34 34 37 39 39 38 31 29 29 25 24 23 23 22 22 22 22 22 23 23 24 25 24 24 25 25 22 18 15 16 16 15 15 14 14 15 15 16 16 16 16 17
57 63 70 67 66 67 64 61 59 55 49 45 43 43 44 46 47 48 48 47 47 46 44 41 40 37 35 34 33 32 31 31 31 31 33 32 29 27 28 29 29 29 31 35 34 36 38 40 41 35 33 33 27 25 26 26 25 24 24 25 26 26 26 28 29 26 24 26 26 23 20 17 15 16 16 16 15 15 14 15 16 16 16 16 17
57 64 67 66 67 68 67 65 61 54 47 44 43 43 44 46 48 48 47 47 47 45 43 41 39 37 36 35 34 32 30 30 30 30 30 31 28 24 24 26 28 29 30 33 33 34 36 39 41 38 37 35 30 28 28 28 28 27 27 27 28 29 28 30 30 28 27 26 28 28 25 20 15 16 16 16 16 16 15 15 16 16 17 16 17
59 63 67 68 69 70 67 65 59 50 45 43 42 43 44 46 48 48 47 47 47 44 42 41 38 37 36 36 35 33 30 30 30 31 32 32 30 24 22 24 26 28 28 30 32 33 36 39 41 40 39 37 33 31 31 31 32 32 30 29 30 32 30 30 31 31 30 28 29 31 29 22 16 16 17 17 17 17 16 16 17 17 17 17 17
59 63 68 70 70 70 65 64 57 47 44 41 41 43 45 48 49 47 47 46 45 44 42 41 39 37 37 36 36 34 31 31 33 34 35 34 31 26 22 23 27 29 29 30 32 34 36 39 42 43 41 38 35 34 35 35 36 35 33 33 34 35 32 32 33 33 31 31 31 31 30 23 17 17 17 18 18 18 18 17 17 17 18 18 18
64 67 69 70 68 66 64 62 54 46 44 42 44 46 48 50 49 47 45 44 44 44 42 40 39 37 36 36 36 35 33 33 36 38 38 37 33 28 23 22 25 30 32 32 34 35 36 38 40 43 41 38 36 36 37 39 39 37 37 38 37 35 33 34 33 32 33 35 34 31 29 22 18 18 18 18 19 19 19 19 17 18 19 19 18
67 72 73 70 66 65 62 58 51 46 46 47 48 50 52 52 50 47 45 44 45 45 42 40 39 38 37 36 36 36 35 36 40 41 42 40 36 31 25 23 24 28 33 34 35 35 35 35 35 37 37 36 38 37 38 42 40 38 39 40 38 35 34 35 34 34 36 38 36 32 29 25 21 18 18 19 19 19 19 19 18 18 19 20 19
70 73 74 72 69 66 58 52 50 50 50 51 53 53 55 53 49 47 46 45 45 45 42 40 39 38 37 36 36 37 39 41 44 46 46 44 40 34 28 25 25 27 31 35 37 36 33 30 29 30 32 34 37 37 37 41 40 39 41 40 38 36 34 35 35 35 37 39 38 35 31 28 24 20 19 20 20 20 19 19 19 19 20 20 20
73 73 74 74 70 63 55 52 52 53 54 54 54 54 54 53 50 48 47 47 45 45 42 41 40 39 39 38 37 38 43 46 48 49 48 45 42 38 33 30 29 29 31 35 38 37 34 29 26 24 26 32 36 35 35 39 41 40 42 40 39 36 34 35 35 35 38 40 38 37 34 29 24 21 21 21 21 21 20 20 19 20 20 20 20
74 73 72 71 65 60 57 55 55 55 55 55 54 54 53 51 49 47 47 45 45 44 43 41 40 40 40 40 39 39 43 45 47 47 45 42 40 38 36 34 34 34 34 37 38 37 35 31 27 22 21 25 30 32 33 37 41 43 42 41 41 36 33 34 35 36 39 40 37 35 34 29 24 21 22 22 21 22 21 20 20 20 21 20 21
72 70 67 65 61 60 59 58 58 57 56 57 56 55 53 50 47 44 43 45 45 44 42 40 39 40 41 41 40 40 40 41 43 44 43 39 36 35 34 34 34 36 37 39 40 38 34 30 28 25 20 19 22 27 31 33 40 44 43 42 42 38 33 34 35 37 39 39 38 34 32 28 24 22 22 22 22 22 21 21 20 19 20 20 20
68 66 63 62 61 61 61 62 62 61 60 60 58 55 53 49 46 45 47 49 48 45 41 39 40 40 40 41 40 40 38 39 42 44 44 40 36 35 34 33 32 33 35 37 39 39 37 34 30 27 24 19 19 24 28 31 37 43 44 43 43 39 36 36 36 36 38 38 38 36 33 28 23 23 22 22 22 22 22 21 20 19 19 19 20
64 63 62 61 63 63 63 63 64 64 63 60 57 55 52 49 46 48 53 52 46 43 41 41 42 42 43 42 42 43 42 42 45 48 47 43 39 38 37 36 34 34 34 34 35 36 40 42 37 30 28 23 20 24 27 29 37 44 46 45 43 41 39 39 37 36 37 38 39 37 35 30 25 24 23 22 22 22 22 21 21 20 19 19 20
62 61 61 62 63 64 64 63 64 64 62 59 57 55 52 48 47 50 51 48 43 41 41 44 45 47 46 45 45 45 45 46 50 52 52 48 45 45 43 42 39 38 36 33 33 35 39 46 45 36 32 28 23 26 27 29 38 44 46 46 43 41 39 39 38 36 37 38 39 37 35 33 29 26 24 23 23 22 22 21 21 20 20 19 19
60 60 61 62 63 63 63 63 63 61 59 57 56 55 52 50 49 49 48 46 43 42 43 45 46 47 46 46 50 51 49 49 50 52 54 52 51 51 49 45 41 39 38 35 33 34 38 45 49 41 36 32 28 31 30 30 38 44 46 47 44 41 39 38 37 37 38 37 37 37 34 32 32 29 26 25 24 23 22 22 21 20 20 19 19
62 62 63 63 63 62 61 61 60 57 56 55 56 56 54 52 51 49 49 48 48 49 50 51 51 48 46 48 52 57 56 53 52 53 56 58 58 58 56 50 44 40 38 37 35 36 39 46 50 45 39 36 34 36 34 32 38 44 45 47 44 40 39 39 39 38 37 37 37 37 33 29 30 28 27 26 25 25 24 22 21 21 20 20 19
65 65 65 64 62 60 58 58 56 55 55 56 58 57 53 53 52 52 52 51 52 55 52 52 56 54 52 52 51 53 56 56 57 58 60 61 61 61 62 57 49 44 40 38 38 38 41 45 49 45 39 38 39 40 38 35 39 44 45 46 45 40 39 40 41 40 38 37 37 37 33 27 27 27 27 27 26 26 25 23 22 21 20 20 19
68 67 66 63 60 56 54 56 57 57 57 58 58 55 53 55 55 54 53 51 51 54 51 50 56 57 54 55 55 53 52 53 55 57 60 60 61 63 64 60 54 52 49 45 44 44 43 45 46 40 35 38 43 43 41 40 42 47 46 46 47 43 40 41 42 40 38 38 38 37 33 28 27 27 27 28 27 26 25 23 23 21 20 19 19
63 63 64 61 56 52 52 55 58 57 55 55 54 50 51 55 55 51 48 49 49 50 51 52 55 57 53 53 59 60 57 56 54 55 61 61 60 64 63 59 56 58 58 54 54 53 50 50 45 35 35 42 49 49 45 45 48 51 48 44 47 47 42 43 44 42 40 40 40 37 32 27 26 28 28 28 28 27 26 25 23 22 20 19 19
57 60 62 58 52 51 52 54 57 58 54 50 48 48 48 49 51 48 47 49 48 44 46 48 48 51 52 52 58 62 62 63 59 59 67 69 65 65 63 60 61 62 64 61 60 59 56 58 49 37 38 46 53 56 51 50 51 52 50 45 47 48 44 45 48 46 42 42 41 37 33 27 25 27 27 28 29 28 27 25 24 23 21 20 19
60 60 59 55 50 51 53 55 59 59 58 54 52 54 53 53 52 47 48 50 47 41 39 40 42 47 52 56 62 64 63 64 64 66 69 70 69 66 64 65 67 66 66 64 63 62 61 63 56 44 44 50 54 58 59 60 59 58 55 51 51 51 48 48 50 48 45 45 43 38 34 30 26 26 26 27 28 28 28 27 25 24 22 21 20
62 59 57 54 51 53 53 54 58 57 57 56 55 57 57 60 57 47 43 42 42 41 37 37 42 46 48 54 62 63 62 63 67 68 65 67 70 70 70 73 75 73 70 66 63 64 64 65 63 58 58 60 58 59 63 67 66 64 62 59 56 54 53 52 50 50 48 45 44 42 38 34 30 26 26 25 26 28 29 28 27 26 24 23 21
59 57 57 54 55 56 51 50 55 57 55 50 49 49 47 50 49 47 46 39 37 38 36 36 38 43 44 48 57 57 56 62 64 63 63 69 72 71 72 72 74 74 72 69 66 67 68 66 64 65 68 68 64 60 62 63 61 61 63 63 61 60 59 57 54 52 51 48 45 44 41 38 34 29 27 26 25 26 28 29 28 27 26 25 23
60 59 58 57 55 52 47 47 52 54 54 48 43 39 38 39 37 42 51 44 36 33 33 33 34 42 42 43 52 53 53 58 60 60 61 68 70 67 66 66 69 70 69 69 69 69 68 66 65 66 68 70 70 68 64 61 60 60 60 59 60 60 60 60 59 59 60 57 50 46 43 39 36 34 32 29 28 26 26 28 28 27 26 25 24
60 60 61 59 54 50 49 51 53 49 44 41 39 37 35 37 37 40 46 41 35 32 31 32 34 38 38 39 47 50 52 56 57 56 57 64 67 65 68 71 72 70 67 69 68 64 64 66 66 66 67 69 75 76 71 67 64 63 62 58 54 54 55 56 57 60 64 64 59 53 46 40 37 36 35 33 31 29 28 27 28 28 27 26 25
62 65 63 60 55 50 48 46 45 40 34 32 34 34 33 34 37 37 35 32 31 32 30 32 33 34 37 38 44 49 49 50 52 52 54 62 68 72 75 76 73 68 65 67 65 62 62 65 64 62 64 69 74 75 71 68 64 62 62 61 55 51 51 51 51 53 58 64 66 62 53 43 38 36 35 33 32 32 31 30 28 28 28 27 26
67 70 64 57 52 49 45 41 40 36 31 29 28 28 31 32 33 31 28 27 27 29 29 31 32 36 43 46 51 58 52 47 49 53 55 58 64 70 74 69 65 64 64 65 65 64 63 64 65 61 61 65 71 71 67 66 66 63 60 60 58 55 52 49 48 48 51 58 64 64 58 49 41 37 36 34 33 31 32 32 30 29 29 28 28
68 65 58 53 49 47 45 41 39 36 33 33 29 28 30 29 29 27 26 26 26 27 25 27 31 34 42 50 55 57 58 59 53 54 58 57 57 63 67 63 59 61 63 63 64 65 64 64 66 67 65 64 67 70 70 72 74 70 65 61 58 58 59 53 46 46 49 53 57 59 58 53 45 41 39 37 33 31 31 32 31 32 32 30 29
69 57 48 49 46 44 41 39 38 36 35 35 30 30 30 29 30 28 28 28 27 26 25 26 27 28 35 45 49 48 58 64 56 55 59 55 54 57 61 59 58 60 61 61 61 63 63 60 62 65 67 65 64 67 71 74 77 75 73 68 62 62 65 61 50 46 49 52 54 55 55 52 45 39 38 36 33 32 32 33 32 32 34 33 32
64 51 44 46 43 41 41 41 40 37 36 35 32 32 33 32 32 31 30 30 29 28 27 27 26 29 38 47 50 52 57 58 54 53 52 51 52 54 57 56 57 59 57 58 60 59 56 55 57 57 58 60 61 64 68 71 74 77 79 78 75 74 73 68 59 52 50 53 54 54 52 49 45 41 38 37 34 32 31 31 32 32 34 35 35
52 46 44 44 39 40 40 39 38 36 36 35 32 32 33 34 33 32 32 31 32 30 29 32 32 32 39 45 48 53 52 51 52 48 44 48 51 50 53 53 53 55 54 56 59 57 51 49 52 52 52 53 54 59 65 70 74 78 82 83 83 82 76 71 69 66 60 57 58 59 58 56 54 50 46 43 41 38 34 30 30 33 35 35 37
46 44 46 43 37 35 34 31 32 33 33 30 27 27 29 32 32 32 33 33 32 29 31 37 36 34 35 38 43 48 45 45 49 47 46 49 50 47 47 48 49 50 51 52 54 55 50 45 44 46 48 48 49 54 59 66 73 78 81 82 84 86 82 76 75 76 70 64 63 65 68 69 65 60 52 48 47 46 42 37 33 31 32 35 37
47 47 47 44 36 31 29 28 30 30 28 27 26 26 27 30 31 33 34 33 31 29 31 33 37 41 39 37 38 40 40 41 42 44 46 48 48 45 42 44 44 44 46 47 49 52 50 46 44 44 44 45 46 48 55 65 71 77 83 84 85 88 87 83 80 78 74 68 66 67 71 72 71 68 62 55 53 50 48 45 42 38 35 35 38
53 51 49 42 34 31 30 28 27 29 29 28 27 27 29 31 31 32 31 31 30 28 29 29 35 42 40 39 40 36 40 47 47 44 44 46 47 44 41 42 42 40 41 42 45 49 50 47 46 46 45 43 42 42 52 66 71 73 81 87 87 85 83 81 78 75 72 67 64 65 66 69 71 73 72 67 61 57 53 52 51 50 47 43 43
55 55 50 41 35 34 32 29 28 30 32 31 29 29 31 31 30 31 30 29 28 27 28 28 31 34 34 39 43 40 43 51 52 47 44 44 44 43 43 42 40 39 39 40 43 45 48 46 45 50 48 41 38 43 55 65 68 66 70 80 82 79 77 76 73 72 69 65 60 56 55 58 63 68 74 74 71 65 60 57 57 57 55 51 49
55 54 49 41 37 36 34 33 32 32 35 34 31 32 34 34 33 33 33 32 29 25 24 26 29 32 32 33 37 40 43 45 45 43 41 41 40 39 38 36 35 37 37 38 40 41 43 41 42 47 45 40 38 45 57 63 67 65 63 67 69 69 70 69 68 67 63 59 53 50 50 53 57 61 66 71 74 74 70 67 64 60 58 54 52
56 51 46 41 40 39 37 36 34 31 35 36 33 34 35 36 37 35 34 32 29 25 21 22 27 30 30 30 31 33 36 38 38 37 35 35 34 32 31 28 29 33 34 35 37 39 39 37 39 42 44 49 47 48 55 58 63 66 62 59 60 61 63 62 62 60 55 51 48 47 49 54 60 64 66 67 70 74 77 78 75 72 71 65 58
51 47 42 40 41 43 41 40 37 33 37 39 36 35 36 37 38 37 35 31 28 26 20 17 22 25 25 27 27 27 28 29 29 29 28 28 28 27 26 24 24 27 30 31 32 34 35 34 36 39 43 51 51 50 55 56 60 67 62 57 57 59 59 57 56 52 47 44 43 43 45 48 55 61 67 71 74 75 76 81 84 84 86 81 71
45 45 42 40 42 45 43 43 41 37 40 42 38 37 37 38 39 39 39 34 30 29 21 13 14 17 17 18 19 21 22 24 26 27 27 26 26 26 25 24 23 24 24 26 26 26 30 31 33 37 40 44 45 48 54 56 58 63 62 58 56 54 53 54 54 50 45 43 41 40 39 40 45 49 54 63 74 78 77 79 85 87 90 89 81
44 47 47 44 46 48 47 47 43 38 42 45 42 40 38 37 38 39 40 38 33 28 21 13 11 12 12 13 15 19 21 23 25 27 27 26 26 27 26 26 26 26 25 24 25 24 24 26 28 33 36 41 44 46 52 54 52 56 60 57 51 47 49 53 53 49 44 42 41 39 36 35 39 43 44 50 61 68 71 76 83 87 89 91 87
47 51 51 47 49 53 52 49 43 39 43 47 45 43 40 39 39 39 40 39 32 26 22 16 12 11 11 12 14 17 20 22 23 26 28 27 27 27 26 26 27 28 27 26 25 24 24 26 29 31 34 39 43 44 45 48 47 49 52 48 45 50 52 49 46 43 40 38 38 39 39 39 44 49 49 49 52 56 63 73 80 85 89 91 93
47 51 52 52 54 59 59 55 47 41 41 42 42 43 42 43 45 45 43 39 31 26 24 19 14 11 11 12 13 14 18 21 23 24 26 26 25 26 25 26 27 28 27 25 24 24 25 30 34 34 33 33 36 37 37 40 42 43 44 42 46 54 51 42 39 39 38 38 40 42 43 46 51 56 56 53 53 58 63 71 77 79 84 89 92
48 50 54 57 61 64 64 60 51 41 39 40 41 43 45 48 53 53 46 39 33 29 28 22 17 12 10 11 12 13 16 19 21 22 24 25 24 24 24 24 25 26 26 26 25 25 26 29 30 31 30 29 30 32 34 38 40 43 45 43 44 44 39 34 34 34 36 40 42 44 44 46 51 56 57 57 60 63 61 66 73 74 76 82 87
46 48 52 56 61 63 65 63 57 48 43 45 45 44 48 52 56 54 45 41 38 35 31 26 20 14 10 11 11 11 12 13 16 20 22 22 22 22 23 23 24 24 25 26 27 28 28 28 27 28 28 29 29 30 32 34 35 38 38 35 33 32 29 29 30 33 36 37 35 36 36 35 37 40 43 46 53 59 54 52 62 70 71 74 81
46 48 50 52 55 56 59 60 59 55 50 51 50 48 49 50 49 47 46 47 45 40 35 29 24 18 12 11 11 11 11 10 11 15 18 20 20 20 21 20 20 19 19 19 20 23 24 24 25 27 28 27 26 26 27 28 28 28 26 24 23 22 23 24 27 30 29 26 23 22 21 20 19 21 23 25 33 45 47 42 48 60 65 69 77